Other Public Products
Issued by NWS Charleston, SC

Current Version | Previous Version | Text Only | Print | Product List | Glossary Off
Versions: 1 2 3 4 5 6 7 8 9 10 11 12 13 14 15 16 17 18 19 20 21 22 23 24 25 26 27 28 29 30 31 32 33 34 35 36 37 38 39 40 41 42 43 44 45 46 47 48 49 50
000 FPUS82 KCHS 191727 OPUCHS TEST...KCHS/KSAV Gateway Observations...TEST National Weather Service Charleston SC 100 PM EDT THU APR 19 2018 NOTE: "fair" indicates few or no clouds below 12,000 feet with no significant weather and/or obstructions to visibility. SCZ050-WAZ558-NCZ071-TXZ119-213-PAZ071-DCZ001-FLZ074-172-MI076- NYZ176-178-MAZ016-IL014-TNZ027-NJZ106-GAZ044-MD014-191800- ...Gateway Observations for Charleston International... CITY SKY/WX TMP DP RH WIND PRES REMARKS Chas Airport FAIR 82 59 45 W15G29 29.92F Seattle MOSUNNY 52 39 61 N5 30.27R Charlotte FAIR 71 39 31 NW17G28 29.91R Dallas DFW PTSUNNY 63 32 31 N14 30.36F Dallas Love PTSUNNY 65 34 31 NE8 30.37F Philladelphia LGT RAIN 48 40 73 NW14 29.77R Wash National LGT RAIN 53 37 54 NW15G30 29.81R Baltimore LGT RAIN 51 39 63 NW17G26 29.78R Miami PTSUNNY 82 62 50 CALM 30.12F Detroit FAIR 48 23 37 NW18 30.13R Newark LGT RAIN 44 38 79 N8 29.73R Laguardia CLOUDY 45 36 70 NW10 29.72R J F K LGT RAIN 44 40 85 N7 29.73R Boston Logan CLOUDY 40 35 83 NW6 29.69S WCI 36 Ft. Lauderdale PTSUNNY 80 66 62 SE10G17 30.11F Chicago O`Hare FAIR 48 27 44 N13 30.33R Chicago Midway FAIR 48 26 42 N13 30.34R Houston Bush FAIR 72 39 30 NE15 30.28S Houston Hobby FAIR 73 37 27 N14 30.26F Nashville PTSUNNY 48 28 46 NW13G20 30.30R Atlanta FAIR 65 42 43 NW22 30.07R $$ GAZ044-118-TXZ119-213-NCZ071-DCZ001-MDZ014-506-PAZ021-071-NJZ106- NYZ176-178-MAZ106-OHZ011-021-055-MIZ076-KYZ091-ILZ014-INZ047- MNZ060-ONZ431-191800- ...Gateway Observations for Savannah International... CITY SKY/WX TMP DP RH WIND PRES REMARKS Savannah Arpt FAIR 81 61 50 W22G29 29.98F Atlanta FAIR 65 42 43 NW22 30.07R Charlotte FAIR 71 39 31 NW17G28 29.91R Dallas DFW PTSUNNY 63 32 31 N14 30.36F Houston Bush FAIR 72 39 30 NE15 30.28S Wash National LGT RAIN 53 37 54 NW15G30 29.81R Wash Dulles PTSUNNY 53 34 48 NW23G37 29.81R Baltimore LGT RAIN 51 39 63 NW17G26 29.78R Philadelphia LGT RAIN 48 40 73 NW14 29.77R Newark LGT RAIN 44 38 79 N8 29.73R Laguardia CLOUDY 45 36 70 NW10 29.72R J F K LGT RAIN 44 40 85 N7 29.73R Boston CLOUDY 40 35 83 NW6 29.69S WCI 36 Pittsburg CLOUDY 36 28 73 NW14 30.02R WCI 27 Akron CLOUDY 39 28 64 NW14G29 30.07R WCI 31 Cleveland CLOUDY 40 29 64 NW18G28 30.15R WCI 31 Cincinnati CLOUDY 42 32 67 NW12 30.23R Columbus CLOUDY 41 29 62 NW13 30.18R Detroit FAIR 48 23 37 NW18 30.13R Chicago O`Hare FAIR 48 27 44 N13 30.33R Minneapolis FAIR 46 19 34 W8 30.48R Indianapolis FAIR 48 30 49 N15 30.28R Toronto Canada PTSUNNY 37 25 60 NW16G25 29.97R WCI 28 $$

USA.gov is the U.S. government's official web portal to all federal, state and local government web resources and services.